owner,sensor,date,latitude,longitude,vertical_datum,wind_speed,wind_to_direction,wind_speed_of_gust,qcFlag 
DISL,ioos:station:DISL:MHPA:1,2011-02-01T00:00:00Z,30.6671,-87.9365,8.5,0.81,44.69,-9999.0,'1111122,1111122,1111122' 
DISL,ioos:station:DISL:MHPA:1,2011-02-01T00:30:00Z,30.6671,-87.9365,8.5,1.42,74.1,-9999.0,'1111122,1111122,1111122' 
DISL,ioos:station:DISL:MHPA:1,2011-02-01T01:00:00Z,30.6671,-87.9365,8.5,1.42,87.3,-9999.0,'1111122,1111122,1111122' 
DISL,ioos:station:DISL:MHPA:1,2011-02-01T01:30:00Z,30.6671,-87.9365,8.5,1.25,94.3,-9999.0,'1111122,1111122,1111122' 
DISL,ioos:station:DISL:MHPA:1,2011-02-01T02:00:00Z,30.6671,-87.9365,8.5,1.03,75.3,-9999.0,'1111122,1111122,1111122' 
DISL,ioos:station:DISL:MHPA:1,2011-02-01T02:30:00Z,30.6671,-87.9365,8.5,1.36,54.35,-9999.0,'1111122,1111122,1111122' 
DISL,ioos:station:DISL:MHPA:1,2011-02-01T03:00:00Z,30.6671,-87.9365,8.5,0.41,66.16,-9999.0,'1111122,1111122,1111122' 
DISL,ioos:station:DISL:MHPA:1,2011-02-01T03:30:00Z,30.6671,-87.9365,8.5,1.33,83.9,-9999.0,'1111122,1111122,1111122' 
DISL,ioos:station:DISL:MHPA:1,2011-02-01T04:00:00Z,30.6671,-87.9365,8.5,0.96,124.3,-9999.0,'1111122,1111122,1111122' 
DISL,ioos:station:DISL:MHPA:1,2011-02-01T04:30:00Z,30.6671,-87.9365,8.5,1.57,122.4,-9999.0,'1111122,1111122,1111122' 
DISL,ioos:station:DISL:MHPA:1,2011-02-01T05:00:00Z,30.6671,-87.9365,8.5,1.28,114.1,-9999.0,'1111122,1111122,1111122' 
DISL,ioos:station:DISL:MHPA:1,2011-02-01T05:30:00Z,30.6671,-87.9365,8.5,1.6,102.7,-9999.0,'1111122,1111122,1111122' 
DISL,ioos:station:DISL:MHPA:1,2011-02-01T06:00:00Z,30.6671,-87.9365,8.5,1.18,85.4,-9999.0,'1111122,1111122,1111122' 
DISL,ioos:station:DISL:MHPA:1,2011-02-01T06:30:00Z,30.6671,-87.9365,8.5,2.34,117.0,-9999.0,'1111122,1111122,1111122' 
DISL,ioos:station:DISL:MHPA:1,2011-02-01T07:00:00Z,30.6671,-87.9365,8.5,1.8,113.4,-9999.0,'1111122,1111122,1111122' 
DISL,ioos:station:DISL:MHPA:1,2011-02-01T07:30:00Z,30.6671,-87.9365,8.5,0.55,93.3,-9999.0,'1111122,1111122,1111122' 
DISL,ioos:station:DISL:MHPA:1,2011-02-01T08:00:00Z,30.6671,-87.9365,8.5,0.45,82.7,-9999.0,'1111122,1111122,1111122' 
DISL,ioos:station:DISL:MHPA:1,2011-02-01T08:30:00Z,30.6671,-87.9365,8.5,1.48,103.5,-9999.0,'1111122,1111122,1111122' 
DISL,ioos:station:DISL:MHPA:1,2011-02-01T09:00:00Z,30.6671,-87.9365,8.5,1.38,147.7,-9999.0,'1111122,1111122,1111122' 
DISL,ioos:station:DISL:MHPA:1,2011-02-01T09:30:00Z,30.6671,-87.9365,8.5,1.24,166.1,-9999.0,'1111122,1111122,1111122' 
DISL,ioos:station:DISL:MHPA:1,2011-02-01T10:00:00Z,30.6671,-87.9365,8.5,0.88,131.4,-9999.0,'1111122,1111122,1111122' 
DISL,ioos:station:DISL:MHPA:1,2011-02-01T10:30:00Z,30.6671,-87.9365,8.5,1.18,89.0,-9999.0,'1111122,1111122,1111122' 
DISL,ioos:station:DISL:MHPA:1,2011-02-01T11:00:00Z,30.6671,-87.9365,8.5,1.91,128.4,-9999.0,'1111122,1111122,1111122' 
DISL,ioos:station:DISL:MHPA:1,2011-02-01T11:30:00Z,30.6671,-87.9365,8.5,1.31,109.3,-9999.0,'1111122,1111122,1111122' 
DISL,ioos:station:DISL:MHPA:1,2011-02-01T12:00:00Z,30.6671,-87.9365,8.5,1.32,82.0,-9999.0,'1111122,1111122,1111122' 
DISL,ioos:station:DISL:MHPA:1,2011-02-01T12:30:00Z,30.6671,-87.9365,8.5,1.36,82.7,-9999.0,'1111122,1111122,1111122' 
DISL,ioos:station:DISL:MHPA:1,2011-02-01T13:00:00Z,30.6671,-87.9365,8.5,2.55,114.0,-9999.0,'1111122,1111122,1111122' 
DISL,ioos:station:DISL:MHPA:1,2011-02-01T13:30:00Z,30.6671,-87.9365,8.5,3.85,108.3,-9999.0,'1111122,1111122,1111122' 
DISL,ioos:station:DISL:MHPA:1,2011-02-01T14:00:00Z,30.6671,-87.9365,8.5,4.6,117.9,-9999.0,'1111122,1111122,1111122' 
DISL,ioos:station:DISL:MHPA:1,2011-02-01T14:30:00Z,30.6671,-87.9365,8.5,5.72,119.2,-9999.0,'1111122,1111122,1111122' 
DISL,ioos:station:DISL:MHPA:1,2011-02-01T15:00:00Z,30.6671,-87.9365,8.5,6.29,128.9,-9999.0,'1111122,1111122,1111122' 
DISL,ioos:station:DISL:MHPA:1,2011-02-01T15:30:00Z,30.6671,-87.9365,8.5,6.6,128.7,-9999.0,'1111122,1111122,1111122' 
DISL,ioos:station:DISL:MHPA:1,2011-02-01T16:00:00Z,30.6671,-87.9365,8.5,8.22,134.0,-9999.0,'1111122,1111122,1111122' 
DISL,ioos:station:DISL:MHPA:1,2011-02-01T16:30:00Z,30.6671,-87.9365,8.5,7.75,134.5,-9999.0,'1111122,1111122,1111122' 
DISL,ioos:station:DISL:MHPA:1,2011-02-01T17:00:00Z,30.6671,-87.9365,8.5,8.11,139.8,-9999.0,'1111122,1111122,1111122' 
DISL,ioos:station:DISL:MHPA:1,2011-02-01T17:30:00Z,30.6671,-87.9365,8.5,8.18,154.1,-9999.0,'1111122,1111122,1111122' 
DISL,ioos:station:DISL:MHPA:1,2011-02-01T18:00:00Z,30.6671,-87.9365,8.5,10.53,153.7,-9999.0,'1111122,1111122,1111122' 
DISL,ioos:station:DISL:MHPA:1,2011-02-01T18:30:00Z,30.6671,-87.9365,8.5,10.59,155.5,-9999.0,'1111122,1111122,1111122' 
DISL,ioos:station:DISL:MHPA:1,2011-02-01T19:00:00Z,30.6671,-87.9365,8.5,11.07,155.5,-9999.0,'1111122,1111122,1111122' 
DISL,ioos:station:DISL:MHPA:1,2011-02-01T19:30:00Z,30.6671,-87.9365,8.5,11.34,152.1,-9999.0,'1111122,1111122,1111122' 
DISL,ioos:station:DISL:MHPA:1,2011-02-01T20:00:00Z,30.6671,-87.9365,8.5,12.94,158.2,-9999.0,'1111122,1111122,1111122' 
DISL,ioos:station:DISL:MHPA:1,2011-02-01T20:30:00Z,30.6671,-87.9365,8.5,13.8,165.0,-9999.0,'1111122,1111122,1111122' 
DISL,ioos:station:DISL:MHPA:1,2011-02-01T21:00:00Z,30.6671,-87.9365,8.5,14.01,161.6,-9999.0,'1111122,1111122,1111122' 
DISL,ioos:station:DISL:MHPA:1,2011-02-01T21:30:00Z,30.6671,-87.9365,8.5,13.93,164.4,-9999.0,'1111122,1111122,1111122' 
DISL,ioos:station:DISL:MHPA:1,2011-02-01T22:00:00Z,30.6671,-87.9365,8.5,13.92,164.9,-9999.0,'1111122,1111122,1111122' 
DISL,ioos:station:DISL:MHPA:1,2011-02-01T22:30:00Z,30.6671,-87.9365,8.5,12.2,171.5,-9999.0,'1111122,1111122,1111122' 
DISL,ioos:station:DISL:MHPA:1,2011-02-01T23:00:00Z,30.6671,-87.9365,8.5,12.97,174.1,-9999.0,'1111122,1111122,1111122' 
DISL,ioos:station:DISL:MHPA:1,2011-02-01T23:30:00Z,30.6671,-87.9365,8.5,13.29,188.4,-9999.0,'1111122,1111122,1111122' 
DISL,ioos:station:DISL:MHPA:1,2011-02-02T00:00:00Z,30.6671,-87.9365,8.5,8.76,192.7,-9999.0,'1111122,1111122,1111122' 
DISL,ioos:station:DISL:MHPA:1,2011-02-02T00:30:00Z,30.6671,-87.9365,8.5,8.93,274.1,-9999.0,'1111122,1111122,1111122' 
DISL,ioos:station:DISL:MHPA:1,2011-02-02T01:00:00Z,30.6671,-87.9365,8.5,2.7,263.9,-9999.0,'1111122,1111122,1111122' 
DISL,ioos:station:DISL:MHPA:1,2011-02-02T01:30:00Z,30.6671,-87.9365,8.5,3.25,242.8,-9999.0,'1111122,1111122,1111122' 
DISL,ioos:station:DISL:MHPA:1,2011-02-02T02:00:00Z,30.6671,-87.9365,8.5,2.02,252.6,-9999.0,'1111122,1111122,1111122' 
DISL,ioos:station:DISL:MHPA:1,2011-02-02T02:30:00Z,30.6671,-87.9365,8.5,3.9,252.9,-9999.0,'1111122,1111122,1111122' 
DISL,ioos:station:DISL:MHPA:1,2011-02-02T03:00:00Z,30.6671,-87.9365,8.5,2.5,244.8,-9999.0,'1111122,1111122,1111122' 
DISL,ioos:station:DISL:MHPA:1,2011-02-02T03:30:00Z,30.6671,-87.9365,8.5,3.43,258.0,-9999.0,'1111122,1111122,1111122' 
DISL,ioos:station:DISL:MHPA:1,2011-02-02T04:00:00Z,30.6671,-87.9365,8.5,3.72,285.5,-9999.0,'1111122,1111122,1111122' 
DISL,ioos:station:DISL:MHPA:1,2011-02-02T04:30:00Z,30.6671,-87.9365,8.5,4.32,304.6,-9999.0,'1111122,1111122,1111122' 
DISL,ioos:station:DISL:MHPA:1,2011-02-02T05:00:00Z,30.6671,-87.9365,8.5,7.97,302.2,-9999.0,'1111122,1111122,1111122' 
DISL,ioos:station:DISL:MHPA:1,2011-02-02T05:30:00Z,30.6671,-87.9365,8.5,7.16,291.9,-9999.0,'1111122,1111122,1111122' 
DISL,ioos:station:DISL:MHPA:1,2011-02-02T06:00:00Z,30.6671,-87.9365,8.5,7.61,317.6,-9999.0,'1111122,1111122,1111122' 
DISL,ioos:station:DISL:MHPA:1,2011-02-02T06:30:00Z,30.6671,-87.9365,8.5,7.14,313.1,-9999.0,'1111122,1111122,1111122' 
DISL,ioos:station:DISL:MHPA:1,2011-02-02T07:00:00Z,30.6671,-87.9365,8.5,6.8,323.4,-9999.0,'1111122,1111122,1111122' 
DISL,ioos:station:DISL:MHPA:1,2011-02-02T07:30:00Z,30.6671,-87.9365,8.5,7.24,314.5,-9999.0,'1111122,1111122,1111122' 
DISL,ioos:station:DISL:MHPA:1,2011-02-02T08:00:00Z,30.6671,-87.9365,8.5,7.14,319.0,-9999.0,'1111122,1111122,1111122' 
DISL,ioos:station:DISL:MHPA:1,2011-02-02T08:30:00Z,30.6671,-87.9365,8.5,7.51,325.7,-9999.0,'1111122,1111122,1111122' 
DISL,ioos:station:DISL:MHPA:1,2011-02-02T09:00:00Z,30.6671,-87.9365,8.5,7.13,331.2,-9999.0,'1111122,1111122,1111122' 
DISL,ioos:station:DISL:MHPA:1,2011-02-02T09:30:00Z,30.6671,-87.9365,8.5,6.01,334.6,-9999.0,'1111122,1111122,1111122' 
DISL,ioos:station:DISL:MHPA:1,2011-02-02T10:00:00Z,30.6671,-87.9365,8.5,6.56,3.403,-9999.0,'1111122,1111122,1111122' 
DISL,ioos:station:DISL:MHPA:1,2011-02-02T10:30:00Z,30.6671,-87.9365,8.5,4.46,353.9,-9999.0,'1111122,1111122,1111122' 
DISL,ioos:station:DISL:MHPA:1,2011-02-02T11:00:00Z,30.6671,-87.9365,8.5,5.03,354.3,-9999.0,'1111122,1111122,1111122' 
DISL,ioos:station:DISL:MHPA:1,2011-02-02T11:30:00Z,30.6671,-87.9365,8.5,6.24,346.7,-9999.0,'1111122,1111122,1111122' 
DISL,ioos:station:DISL:MHPA:1,2011-02-02T12:00:00Z,30.6671,-87.9365,8.5,7.47,358.2,-9999.0,'1111122,1111122,1111122' 
DISL,ioos:station:DISL:MHPA:1,2011-02-02T12:30:00Z,30.6671,-87.9365,8.5,6.56,347.9,-9999.0,'1111122,1111122,1111122' 
DISL,ioos:station:DISL:MHPA:1,2011-02-02T13:00:00Z,30.6671,-87.9365,8.5,6.4,341.6,-9999.0,'1111122,1111122,1111122' 
DISL,ioos:station:DISL:MHPA:1,2011-02-02T13:30:00Z,30.6671,-87.9365,8.5,6.27,349.6,-9999.0,'1111122,1111122,1111122' 
DISL,ioos:station:DISL:MHPA:1,2011-02-02T14:00:00Z,30.6671,-87.9365,8.5,5.93,342.9,-9999.0,'1111122,1111122,1111122' 
DISL,ioos:station:DISL:MHPA:1,2011-02-02T14:30:00Z,30.6671,-87.9365,8.5,6.14,348.4,-9999.0,'1111122,1111122,1111122' 
DISL,ioos:station:DISL:MHPA:1,2011-02-02T15:00:00Z,30.6671,-87.9365,8.5,6.75,340.9,-9999.0,'1111122,1111122,1111122' 
DISL,ioos:station:DISL:MHPA:1,2011-02-02T15:30:00Z,30.6671,-87.9365,8.5,6.33,345.0,-9999.0,'1111122,1111122,1111122' 
DISL,ioos:station:DISL:MHPA:1,2011-02-02T16:00:00Z,30.6671,-87.9365,8.5,5.8,351.8,-9999.0,'1111122,1111122,1111122' 
DISL,ioos:station:DISL:MHPA:1,2011-02-02T16:30:00Z,30.6671,-87.9365,8.5,5.46,359.5,-9999.0,'1111122,1111122,1111122' 
DISL,ioos:station:DISL:MHPA:1,2011-02-02T17:00:00Z,30.6671,-87.9365,8.5,5.85,353.4,-9999.0,'1111122,1111122,1111122' 
DISL,ioos:station:DISL:MHPA:1,2011-02-02T17:30:00Z,30.6671,-87.9365,8.5,5.39,6.54,-9999.0,'1111122,1111122,1111122' 
DISL,ioos:station:DISL:MHPA:1,2011-02-02T18:00:00Z,30.6671,-87.9365,8.5,5.71,355.8,-9999.0,'1111122,1111122,1111122' 
DISL,ioos:station:DISL:MHPA:1,2011-02-02T18:30:00Z,30.6671,-87.9365,8.5,6.59,350.2,-9999.0,'1111122,1111122,1111122' 
DISL,ioos:station:DISL:MHPA:1,2011-02-02T19:00:00Z,30.6671,-87.9365,8.5,6.34,355.3,-9999.0,'1111122,1111122,1111122' 
DISL,ioos:station:DISL:MHPA:1,2011-02-02T19:30:00Z,30.6671,-87.9365,8.5,5.55,346.9,-9999.0,'1111122,1111122,1111122' 
DISL,ioos:station:DISL:MHPA:1,2011-02-02T20:00:00Z,30.6671,-87.9365,8.5,6.4,351.0,-9999.0,'1111122,1111122,1111122' 
DISL,ioos:station:DISL:MHPA:1,2011-02-02T20:30:00Z,30.6671,-87.9365,8.5,6.94,359.9,-9999.0,'1111122,1111122,1111122' 
DISL,ioos:station:DISL:MHPA:1,2011-02-02T21:00:00Z,30.6671,-87.9365,8.5,5.86,356.8,-9999.0,'1111122,1111122,1111122' 
DISL,ioos:station:DISL:MHPA:1,2011-02-02T21:30:00Z,30.6671,-87.9365,8.5,6.72,1.939,-9999.0,'1111122,1111122,1111122' 
DISL,ioos:station:DISL:MHPA:1,2011-02-02T22:00:00Z,30.6671,-87.9365,8.5,6.14,354.6,-9999.0,'1111122,1111122,1111122' 
DISL,ioos:station:DISL:MHPA:1,2011-02-02T22:30:00Z,30.6671,-87.9365,8.5,5.45,1.822,-9999.0,'1111122,1111122,1111122' 
DISL,ioos:station:DISL:MHPA:1,2011-02-02T23:00:00Z,30.6671,-87.9365,8.5,5.19,354.9,-9999.0,'1111122,1111122,1111122' 
DISL,ioos:station:DISL:MHPA:1,2011-02-02T23:30:00Z,30.6671,-87.9365,8.5,5.97,6.529,-9999.0,'1111122,1111122,1111122' 
DISL,ioos:station:DISL:MHPA:1,2011-02-03T00:00:00Z,30.6671,-87.9365,8.5,5.57,11.19,-9999.0,'1111122,1111122,1111122' 
DISL,ioos:station:DISL:MHPA:1,2011-02-03T00:30:00Z,30.6671,-87.9365,8.5,4.41,14.1,-9999.0,'1111122,1111122,1111122' 
DISL,ioos:station:DISL:MHPA:1,2011-02-03T01:00:00Z,30.6671,-87.9365,8.5,6.14,1.908,-9999.0,'1111122,1111122,1111122' 
DISL,ioos:station:DISL:MHPA:1,2011-02-03T01:30:00Z,30.6671,-87.9365,8.5,5.21,1.171,-9999.0,'1111122,1111122,1111122' 
DISL,ioos:station:DISL:MHPA:1,2011-02-03T02:00:00Z,30.6671,-87.9365,8.5,5.44,8.84,-9999.0,'1111122,1111122,1111122' 
DISL,ioos:station:DISL:MHPA:1,2011-02-03T02:30:00Z,30.6671,-87.9365,8.5,4.7,14.42,-9999.0,'1111122,1111122,1111122' 
DISL,ioos:station:DISL:MHPA:1,2011-02-03T03:00:00Z,30.6671,-87.9365,8.5,4.6,3.482,-9999.0,'1111122,1111122,1111122' 
DISL,ioos:station:DISL:MHPA:1,2011-02-03T03:30:00Z,30.6671,-87.9365,8.5,4.01,16.45,-9999.0,'1111122,1111122,1111122' 
DISL,ioos:station:DISL:MHPA:1,2011-02-03T04:00:00Z,30.6671,-87.9365,8.5,3.75,24.16,-9999.0,'1111122,1111122,1111122' 
DISL,ioos:station:DISL:MHPA:1,2011-02-03T04:30:00Z,30.6671,-87.9365,8.5,4.93,0.348,-9999.0,'1111122,1111122,1111122' 
DISL,ioos:station:DISL:MHPA:1,2011-02-03T05:00:00Z,30.6671,-87.9365,8.5,3.01,20.8,-9999.0,'1111122,1111122,1111122' 
DISL,ioos:station:DISL:MHPA:1,2011-02-03T05:30:00Z,30.6671,-87.9365,8.5,3.73,9.05,-9999.0,'1111122,1111122,1111122' 
DISL,ioos:station:DISL:MHPA:1,2011-02-03T06:00:00Z,30.6671,-87.9365,8.5,3.99,7.86,-9999.0,'1111122,1111122,1111122' 
DISL,ioos:station:DISL:MHPA:1,2011-02-03T06:30:00Z,30.6671,-87.9365,8.5,4.18,8.12,-9999.0,'1111122,1111122,1111122' 
DISL,ioos:station:DISL:MHPA:1,2011-02-03T07:00:00Z,30.6671,-87.9365,8.5,5.13,14.77,-9999.0,'1111122,1111122,1111122' 
DISL,ioos:station:DISL:MHPA:1,2011-02-03T07:30:00Z,30.6671,-87.9365,8.5,5.13,359.7,-9999.0,'1111122,1111122,1111122' 
DISL,ioos:station:DISL:MHPA:1,2011-02-03T08:00:00Z,30.6671,-87.9365,8.5,5.24,2.792,-9999.0,'1111122,1111122,1111122' 
DISL,ioos:station:DISL:MHPA:1,2011-02-03T08:30:00Z,30.6671,-87.9365,8.5,4.98,5.671,-9999.0,'1111122,1111122,1111122' 
DISL,ioos:station:DISL:MHPA:1,2011-02-03T09:00:00Z,30.6671,-87.9365,8.5,5.38,9.46,-9999.0,'1111122,1111122,1111122' 
DISL,ioos:station:DISL:MHPA:1,2011-02-03T09:30:00Z,30.6671,-87.9365,8.5,5.27,7.41,-9999.0,'1111122,1111122,1111122' 
DISL,ioos:station:DISL:MHPA:1,2011-02-03T10:00:00Z,30.6671,-87.9365,8.5,5.28,6.354,-9999.0,'1111122,1111122,1111122' 
DISL,ioos:station:DISL:MHPA:1,2011-02-03T10:30:00Z,30.6671,-87.9365,8.5,5.29,14.27,-9999.0,'1111122,1111122,1111122' 
DISL,ioos:station:DISL:MHPA:1,2011-02-03T11:00:00Z,30.6671,-87.9365,8.5,4.56,12.04,-9999.0,'1111122,1111122,1111122' 
DISL,ioos:station:DISL:MHPA:1,2011-02-03T11:30:00Z,30.6671,-87.9365,8.5,4.78,18.09,-9999.0,'1111122,1111122,1111122' 
DISL,ioos:station:DISL:MHPA:1,2011-02-03T12:00:00Z,30.6671,-87.9365,8.5,4.73,11.76,-9999.0,'1111122,1111122,1111122' 
DISL,ioos:station:DISL:MHPA:1,2011-02-03T12:30:00Z,30.6671,-87.9365,8.5,3.51,33.96,-9999.0,'1111122,1111122,1111122' 
DISL,ioos:station:DISL:MHPA:1,2011-02-03T13:00:00Z,30.6671,-87.9365,8.5,5.5,5.297,-9999.0,'1111122,1111122,1111122' 
DISL,ioos:station:DISL:MHPA:1,2011-02-03T13:30:00Z,30.6671,-87.9365,8.5,6.09,7.14,-9999.0,'1111122,1111122,1111122' 
DISL,ioos:station:DISL:MHPA:1,2011-02-03T14:00:00Z,30.6671,-87.9365,8.5,5.73,356.5,-9999.0,'1111122,1111122,1111122' 
DISL,ioos:station:DISL:MHPA:1,2011-02-03T14:30:00Z,30.6671,-87.9365,8.5,5.86,3.956,-9999.0,'1111122,1111122,1111122' 
DISL,ioos:station:DISL:MHPA:1,2011-02-03T15:00:00Z,30.6671,-87.9365,8.5,6.16,6.207,-9999.0,'1111122,1111122,1111122' 
DISL,ioos:station:DISL:MHPA:1,2011-02-03T15:30:00Z,30.6671,-87.9365,8.5,4.76,11.34,-9999.0,'1111122,1111122,1111122' 
DISL,ioos:station:DISL:MHPA:1,2011-02-03T16:00:00Z,30.6671,-87.9365,8.5,4.68,8.91,-9999.0,'1111122,1111122,1111122' 
DISL,ioos:station:DISL:MHPA:1,2011-02-03T16:30:00Z,30.6671,-87.9365,8.5,4.53,16.87,-9999.0,'1111122,1111122,1111122' 
DISL,ioos:station:DISL:MHPA:1,2011-02-03T17:00:00Z,30.6671,-87.9365,8.5,4.1,14.34,-9999.0,'1111122,1111122,1111122' 
DISL,ioos:station:DISL:MHPA:1,2011-02-03T17:30:00Z,30.6671,-87.9365,8.5,3.91,10.35,-9999.0,'1111122,1111122,1111122' 
DISL,ioos:station:DISL:MHPA:1,2011-02-03T18:00:00Z,30.6671,-87.9365,8.5,4.13,10.54,-9999.0,'1111122,1111122,1111122' 
DISL,ioos:station:DISL:MHPA:1,2011-02-03T18:30:00Z,30.6671,-87.9365,8.5,4.15,4.449,-9999.0,'1111122,1111122,1111122' 
DISL,ioos:station:DISL:MHPA:1,2011-02-03T19:00:00Z,30.6671,-87.9365,8.5,4.79,356.8,-9999.0,'1111122,1111122,1111122' 
DISL,ioos:station:DISL:MHPA:1,2011-02-03T19:30:00Z,30.6671,-87.9365,8.5,4.64,345.8,-9999.0,'1111122,1111122,1111122' 
DISL,ioos:station:DISL:MHPA:1,2011-02-03T20:00:00Z,30.6671,-87.9365,8.5,5.44,345.6,-9999.0,'1111122,1111122,1111122' 
DISL,ioos:station:DISL:MHPA:1,2011-02-03T20:30:00Z,30.6671,-87.9365,8.5,5.43,358.5,-9999.0,'1111122,1111122,1111122' 
DISL,ioos:station:DISL:MHPA:1,2011-02-03T21:00:00Z,30.6671,-87.9365,8.5,4.97,7.7,-9999.0,'1111122,1111122,1111122' 
DISL,ioos:station:DISL:MHPA:1,2011-02-03T21:30:00Z,30.6671,-87.9365,8.5,5.8,1.35,-9999.0,'1111122,1111122,1111122' 
DISL,ioos:station:DISL:MHPA:1,2011-02-03T22:00:00Z,30.6671,-87.9365,8.5,5.27,359.6,-9999.0,'1111122,1111122,1111122' 
DISL,ioos:station:DISL:MHPA:1,2011-02-03T22:30:00Z,30.6671,-87.9365,8.5,5.25,9.52,-9999.0,'1111122,1111122,1111122' 
DISL,ioos:station:DISL:MHPA:1,2011-02-03T23:00:00Z,30.6671,-87.9365,8.5,4.4,2.06,-9999.0,'1111122,1111122,1111122' 
DISL,ioos:station:DISL:MHPA:1,2011-02-03T23:30:00Z,30.6671,-87.9365,8.5,4.74,1.73,-9999.0,'1111122,1111122,1111122' 
DISL,ioos:station:DISL:MHPA:1,2011-02-04T00:00:00Z,30.6671,-87.9365,8.5,3.5,14.9,-9999.0,'1111122,1111122,1111122' 
DISL,ioos:station:DISL:MHPA:1,2011-02-04T00:30:00Z,30.6671,-87.9365,8.5,4.08,11.61,-9999.0,'1111122,1111122,1111122' 
DISL,ioos:station:DISL:MHPA:1,2011-02-04T01:00:00Z,30.6671,-87.9365,8.5,2.84,24.49,-9999.0,'1111122,1111122,1111122' 
DISL,ioos:station:DISL:MHPA:1,2011-02-04T01:30:00Z,30.6671,-87.9365,8.5,3.25,47.95,-9999.0,'1111122,1111122,1111122' 
DISL,ioos:station:DISL:MHPA:1,2011-02-04T02:00:00Z,30.6671,-87.9365,8.5,3.13,23.42,-9999.0,'1111122,1111122,1111122' 
DISL,ioos:station:DISL:MHPA:1,2011-02-04T02:30:00Z,30.6671,-87.9365,8.5,3.45,26.42,-9999.0,'1111122,1111122,1111122' 
DISL,ioos:station:DISL:MHPA:1,2011-02-04T03:00:00Z,30.6671,-87.9365,8.5,2.8,355.4,-9999.0,'1111122,1111122,1111122' 
DISL,ioos:station:DISL:MHPA:1,2011-02-04T03:30:00Z,30.6671,-87.9365,8.5,2.72,35.06,-9999.0,'1111122,1111122,1111122' 
DISL,ioos:station:DISL:MHPA:1,2011-02-04T04:00:00Z,30.6671,-87.9365,8.5,2.95,19.36,-9999.0,'1111122,1111122,1111122' 
DISL,ioos:station:DISL:MHPA:1,2011-02-04T04:30:00Z,30.6671,-87.9365,8.5,3.43,26.08,-9999.0,'1111122,1111122,1111122' 
DISL,ioos:station:DISL:MHPA:1,2011-02-04T05:00:00Z,30.6671,-87.9365,8.5,2.12,23.29,-9999.0,'1111122,1111122,1111122' 
DISL,ioos:station:DISL:MHPA:1,2011-02-04T05:30:00Z,30.6671,-87.9365,8.5,3.2,1.7,-9999.0,'1111122,1111122,1111122' 
DISL,ioos:station:DISL:MHPA:1,2011-02-04T06:00:00Z,30.6671,-87.9365,8.5,2.47,29.89,-9999.0,'1111122,1111122,1111122' 
DISL,ioos:station:DISL:MHPA:1,2011-02-04T06:30:00Z,30.6671,-87.9365,8.5,2.32,35.48,-9999.0,'1111122,1111122,1111122' 
DISL,ioos:station:DISL:MHPA:1,2011-02-04T07:00:00Z,30.6671,-87.9365,8.5,2.69,355.5,-9999.0,'1111122,1111122,1111122' 
DISL,ioos:station:DISL:MHPA:1,2011-02-04T07:30:00Z,30.6671,-87.9365,8.5,2.9,7.39,-9999.0,'1111122,1111122,1111122' 
DISL,ioos:station:DISL:MHPA:1,2011-02-04T08:00:00Z,30.6671,-87.9365,8.5,2.32,3.261,-9999.0,'1111122,1111122,1111122' 
DISL,ioos:station:DISL:MHPA:1,2011-02-04T08:30:00Z,30.6671,-87.9365,8.5,1.79,3.354,-9999.0,'1111122,1111122,1111122' 
DISL,ioos:station:DISL:MHPA:1,2011-02-04T09:00:00Z,30.6671,-87.9365,8.5,2.37,339.1,-9999.0,'1111122,1111122,1111122' 
DISL,ioos:station:DISL:MHPA:1,2011-02-04T09:30:00Z,30.6671,-87.9365,8.5,2.07,9.14,-9999.0,'1111122,1111122,1111122' 
DISL,ioos:station:DISL:MHPA:1,2011-02-04T10:00:00Z,30.6671,-87.9365,8.5,2.49,8.91,-9999.0,'1111122,1111122,1111122' 
DISL,ioos:station:DISL:MHPA:1,2011-02-04T10:30:00Z,30.6671,-87.9365,8.5,2.58,16.5,-9999.0,'1111122,1111122,1111122' 
DISL,ioos:station:DISL:MHPA:1,2011-02-04T11:00:00Z,30.6671,-87.9365,8.5,1.87,40.4,-9999.0,'1111122,1111122,1111122' 
DISL,ioos:station:DISL:MHPA:1,2011-02-04T11:30:00Z,30.6671,-87.9365,8.5,1.78,18.01,-9999.0,'1111122,1111122,1111122' 
DISL,ioos:station:DISL:MHPA:1,2011-02-04T12:00:00Z,30.6671,-87.9365,8.5,3.0,4.078,-9999.0,'1111122,1111122,1111122' 
DISL,ioos:station:DISL:MHPA:1,2011-02-04T12:30:00Z,30.6671,-87.9365,8.5,1.91,74.3,-9999.0,'1111122,1111122,1111122' 
DISL,ioos:station:DISL:MHPA:1,2011-02-04T13:00:00Z,30.6671,-87.9365,8.5,2.45,126.0,-9999.0,'1111122,1111122,1111122' 
DISL,ioos:station:DISL:MHPA:1,2011-02-04T13:30:00Z,30.6671,-87.9365,8.5,1.63,10.5,-9999.0,'1111122,1111122,1111122' 
DISL,ioos:station:DISL:MHPA:1,2011-02-04T14:00:00Z,30.6671,-87.9365,8.5,2.77,332.2,-9999.0,'1111122,1111122,1111122' 
DISL,ioos:station:DISL:MHPA:1,2011-02-04T14:30:00Z,30.6671,-87.9365,8.5,2.66,352.4,-9999.0,'1111122,1111122,1111122' 
DISL,ioos:station:DISL:MHPA:1,2011-02-04T15:00:00Z,30.6671,-87.9365,8.5,3.76,338.1,-9999.0,'1111122,1111122,1111122' 
DISL,ioos:station:DISL:MHPA:1,2011-02-04T15:30:00Z,30.6671,-87.9365,8.5,3.75,344.5,-9999.0,'1111122,1111122,1111122' 
DISL,ioos:station:DISL:MHPA:1,2011-02-04T16:00:00Z,30.6671,-87.9365,8.5,4.07,2.292,-9999.0,'1111122,1111122,1111122' 
DISL,ioos:station:DISL:MHPA:1,2011-02-04T16:30:00Z,30.6671,-87.9365,8.5,4.51,0.329,-9999.0,'1111122,1111122,1111122' 
DISL,ioos:station:DISL:MHPA:1,2011-02-04T17:00:00Z,30.6671,-87.9365,8.5,3.73,6.632,-9999.0,'1111122,1111122,1111122' 
DISL,ioos:station:DISL:MHPA:1,2011-02-04T17:30:00Z,30.6671,-87.9365,8.5,5.11,16.32,-9999.0,'1111122,1111122,1111122' 
DISL,ioos:station:DISL:MHPA:1,2011-02-04T18:00:00Z,30.6671,-87.9365,8.5,4.98,19.54,-9999.0,'1111122,1111122,1111122' 
DISL,ioos:station:DISL:MHPA:1,2011-02-04T18:30:00Z,30.6671,-87.9365,8.5,4.44,1.0,-9999.0,'1111122,1111122,1111122' 
DISL,ioos:station:DISL:MHPA:1,2011-02-04T19:00:00Z,30.6671,-87.9365,8.5,4.23,14.65,-9999.0,'1111122,1111122,1111122' 
DISL,ioos:station:DISL:MHPA:1,2011-02-04T19:30:00Z,30.6671,-87.9365,8.5,4.18,0.493,-9999.0,'1111122,1111122,1111122' 
DISL,ioos:station:DISL:MHPA:1,2011-02-04T20:00:00Z,30.6671,-87.9365,8.5,3.42,5.62,-9999.0,'1111122,1111122,1111122' 
DISL,ioos:station:DISL:MHPA:1,2011-02-04T20:30:00Z,30.6671,-87.9365,8.5,2.93,28.02,-9999.0,'1111122,1111122,1111122' 
DISL,ioos:station:DISL:MHPA:1,2011-02-04T21:00:00Z,30.6671,-87.9365,8.5,3.3,9.33,-9999.0,'1111122,1111122,1111122' 
DISL,ioos:station:DISL:MHPA:1,2011-02-04T21:30:00Z,30.6671,-87.9365,8.5,3.42,8.88,-9999.0,'1111122,1111122,1111122' 
DISL,ioos:station:DISL:MHPA:1,2011-02-04T22:00:00Z,30.6671,-87.9365,8.5,3.1,19.93,-9999.0,'1111122,1111122,1111122' 
DISL,ioos:station:DISL:MHPA:1,2011-02-04T22:30:00Z,30.6671,-87.9365,8.5,3.74,48.06,-9999.0,'1111122,1111122,1111122' 
DISL,ioos:station:DISL:MHPA:1,2011-02-04T23:00:00Z,30.6671,-87.9365,8.5,3.17,36.08,-9999.0,'1111122,1111122,1111122' 
DISL,ioos:station:DISL:MHPA:1,2011-02-04T23:30:00Z,30.6671,-87.9365,8.5,2.92,36.09,-9999.0,'1111122,1111122,1111122' 
DISL,ioos:station:DISL:MHPA:1,2011-02-05T00:00:00Z,30.6671,-87.9365,8.5,2.61,59.18,-9999.0,'1111122,1111122,1111122' 
DISL,ioos:station:DISL:MHPA:1,2011-02-05T00:30:00Z,30.6671,-87.9365,8.5,2.83,333.7,-9999.0,'1111122,1111122,1111122' 
DISL,ioos:station:DISL:MHPA:1,2011-02-05T01:00:00Z,30.6671,-87.9365,8.5,2.94,337.9,-9999.0,'1111122,1111122,1111122' 
DISL,ioos:station:DISL:MHPA:1,2011-02-05T01:30:00Z,30.6671,-87.9365,8.5,3.32,299.4,-9999.0,'1111122,1111122,1111122' 
DISL,ioos:station:DISL:MHPA:1,2011-02-05T02:00:00Z,30.6671,-87.9365,8.5,2.96,310.2,-9999.0,'1111122,1111122,1111122' 
DISL,ioos:station:DISL:MHPA:1,2011-02-05T02:30:00Z,30.6671,-87.9365,8.5,3.4,318.4,-9999.0,'1111122,1111122,1111122' 
DISL,ioos:station:DISL:MHPA:1,2011-02-05T03:00:00Z,30.6671,-87.9365,8.5,2.97,318.3,-9999.0,'1111122,1111122,1111122' 
DISL,ioos:station:DISL:MHPA:1,2011-02-05T03:30:00Z,30.6671,-87.9365,8.5,2.33,332.3,-9999.0,'1111122,1111122,1111122' 
DISL,ioos:station:DISL:MHPA:1,2011-02-05T04:00:00Z,30.6671,-87.9365,8.5,1.47,9.02,-9999.0,'1111122,1111122,1111122' 
DISL,ioos:station:DISL:MHPA:1,2011-02-05T04:30:00Z,30.6671,-87.9365,8.5,1.95,342.6,-9999.0,'1111122,1111122,1111122' 